Location: Newark
(49.9367°N, 3.1169°E)
Time: 15:09:02
(UTC+00:00)

Envisat - Visible Passes

Search period start: 20 November 2019 00:00
Search period end: 30 November 2019 00:00
Orbit: 764 x 766 km, 98.1° (Epoch: 20 November)

Date Brightness Start Highest point End Pass type
(mag) Time Alt. Az. Time Alt. Az. Time Alt. Az.
20 Nov 6.0 05:24:28 10° NE 05:27:38 16° E 05:30:47 10° SE visible
20 Nov 3.6 16:42:55 10° SE 16:47:28 34° ENE 16:52:01 10° N visible
20 Nov 4.4 18:21:41 10° SSW 18:26:26 39° W 18:31:12 10° NNW visible
21 Nov 4.0 06:25:28 10° NNE 06:30:27 52° E 06:35:24 10° S visible
21 Nov 3.1 17:44:26 10° S 17:49:31 79° WSW 17:54:39 10° NNW visible
21 Nov 6.1 19:27:28 10° WSW 19:29:25 12° W 19:31:20 10° WNW visible
22 Nov 5.4 05:49:09 10° NE 05:53:26 26° E 05:57:41 10° SSE visible
22 Nov 3.1 17:07:53 10° SE 17:12:48 53° ENE 17:17:46 10° N visible
22 Nov 5.2 18:48:02 10° SW 18:52:09 24° W 18:56:17 10° NW visible
23 Nov 6.1 05:13:49 10° ENE 05:16:12 13° E 05:18:34 10° ESE visible
23 Nov 3.8 16:31:59 10° ESE 16:36:17 28° ENE 16:40:35 10° N visible
23 Nov 4.0 18:10:12 10° S 18:15:06 48° W 18:20:02 10° NNW visible
24 Nov 4.4 06:14:17 10° NNE 06:19:08 42° E 06:23:56 10° S visible
24 Nov 2.9 17:33:09 10° SSE 17:38:15 86° ENE 17:43:22 10° NNW visible
24 Nov 5.9 19:15:06 10° WSW 19:17:58 15° W 19:20:51 10° NW visible
25 Nov 5.7 05:38:09 10° NE 05:42:02 22° E 05:45:55 10° SE visible
25 Nov 3.3 16:56:47 10° SE 17:01:35 44° ENE 17:06:24 10° N visible
25 Nov 4.9 18:36:21 10° SSW 18:40:46 30° W 18:45:13 10° NNW visible
26 Nov 6.4 05:03:53 10° ENE 05:04:45 10° E 05:05:36 10° E visible
26 Nov 4.0 16:21:07 10° ESE 16:25:07 24° ENE 16:29:07 10° N visible
26 Nov 3.6 17:58:46 10° S 18:03:46 59° W 18:08:49 10° NNW visible
27 Nov 4.8 06:03:08 10° NNE 06:07:47 35° E 06:12:24 10° SSE visible
27 Nov 2.9 17:21:56 10° SSE 17:26:59 71° ENE 17:32:04 10° N visible
27 Nov 5.6 19:03:02 10° SW 19:06:32 18° W 19:10:03 10° NW visible
28 Nov 5.9 05:27:14 10° NE 05:30:38 18° E 05:34:01 10° SE visible
28 Nov 3.5 16:45:46 10° SE 16:50:22 36° ENE 16:55:01 10° N visible
28 Nov 4.5 18:24:44 10° SSW 18:29:25 36° W 18:34:07 10° NNW visible
29 Nov 3.8 06:28:23 10° NNE 06:33:25 57° E 06:38:25 10° S visible
29 Nov 3.2 17:47:24 10° S 17:52:29 73° WSW 17:57:34 10° NNW visible
29 Nov 6.2 19:31:04 10° W 19:32:25 11° W 19:33:46 10° WNW visible
